Regional Weather Roundup
Issued by NWS Goodland, KS

Home | Current Version | Previous Version | Graphics & Text | Print | Product List | Glossary On
Versions: 1 2 3 4 5 6 7 8 9 10 11 12 13 14 15 16 17 18 19 20 21 22 23 24 25 26 27 28 29 30 31 32 33 34 35 36 37 38 39 40 41 42 43 44 45 46 47 48 49 50
097
ASUS43 KGLD 281208
RWRGLD

GOODLAND FORECAST AREA HOURLY WEATHER ROUNDUP
NATIONAL WEATHER SERVICE GOODLAND KS
600 AM MDT TUE MAR 28 2017

...OFFICIAL OBSERVATIONS...

CITY           SKY/WX    TMP DP  RH WIND       PRES   REMARKS
GOODLAND KS    CLOUDY    44  44 100 SE15G23   29.88S FOG
HILL CITY KS   CLOUDY    45  45 100 SE9       29.97F FOG
IMPERIAL NEB   CLOUDY    45  43  93 E12       29.92S
MCCOOK NEB     CLOUDY    45  44  97 E9        29.94F FOG
AKRON CO       LGT RAIN  45  40  82 SE15      29.85R
BURLINGTON CO  CLOUDY    44  42  93 SE25      29.84F
LIMON CO       CLOUDY    40  40 100 SE13      29.84R
$$

...UNOFFICIAL OBSERVATIONS...

CITY           SKY/WX    TMP DP  RH WIND       PRES   REMARKS
NORTON KS      FOG       43  41  93 E8        29.97S VSB 3/4
SHARON SPRINGS   N/A     46  44  93 SE17        N/A
TRENTON NEB      N/A     44  32  63 CALM        N/A
KIT CARSON CO    N/A     46  41  84 MISG        N/A
YUMA CO        DRIZZLE   43  41  93 SE9       29.86S
$$




USA.gov is the U.S. government's official web portal to all federal, state and local government web resources and services.